Tracking 23940 objects as of 2-Dec-2021
HD Live streaming from Space Station
objects crossing your sky now

STARLINK-3097

Track STARLINK-3097 now!
10-day predictions
STARLINK-3097 is classified as:


NORAD ID: 49448
Int'l Code: 2021-104AS
Perigee: 355.9 km
Apogee: 357.7 km
Inclination: 53.2 °
Period: 91.5 minutes
Semi major axis: 6727 km
RCS: Unknown
Launch date: November 13, 2021
Source: United States (US)
Launch site: AIR FORCE EASTERN TEST RANGE (AFETR)
aabbcc
Your satellite tracking list
Your tracking list is empty




NASA's NSSDC Master Catalog

Two Line Element Set (TLE):
1 49448U 21104AS  21335.91667824  .00015615  00000-0  11529-3 0  9993
2 49448  53.2187  42.0122 0001295  10.3608  79.6832 15.73236347  3574
Source of the keplerian elements: AFSPC